This is the latest recevied weather packets stored in our database for station/object N2OCK. If no packets are shown the sender has not sent any weather packets the latest 10 day(s).
| Time | Temp. | Humidity | Pressure | Rain* | Wind** | Luminosity | Snow |
|---|---|---|---|---|---|---|---|
| 1777901186 | 16.11° C | 48% | 1013.9 hPa | 0 mm | - | 460 W/m² | - |
| 1777900884 | 16.11° C | 49% | 1013.7 hPa | 0 mm | - | 446 W/m² | - |
| 1777900581 | 16.11° C | 48% | 1013.7 hPa | 0 mm | - | 432 W/m² | - |
| 1777900278 | 15.56° C | 51% | 1013.9 hPa | 0 mm | - | 420 W/m² | - |
| 1777899974 | 15.56° C | 50% | 1014.1 hPa | 0 mm | - | 406 W/m² | - |
| 1777899671 | 15° C | 49% | 1014 hPa | 0 mm | - | 392 W/m² | - |
| 1777899369 | 14.44° C | 51% | 1014.2 hPa | 0 mm | - | 378 W/m² | - |
| 1777899067 | 14.44° C | 52% | 1014 hPa | 0 mm | - | 363 W/m² | - |
| 1777898764 | 14.44° C | 51% | 1014 hPa | 0 mm | - | 349 W/m² | - |
| 1777898461 | 14.44° C | 52% | 1014.1 hPa | 0 mm | - | 336 W/m² | - |
| 1777898159 | 14.44° C | 53% | 1014.2 hPa | 0 mm | - | 322 W/m² | - |
| 1777897856 | 14.44° C | 52% | 1014.2 hPa | 0 mm | - | 307 W/m² | - |
| 1777897552 | 13.89° C | 54% | 1014.2 hPa | 0 mm | - | 293 W/m² | - |
| 1777897247 | 13.89° C | 55% | 1014.2 hPa | 0 mm | - | 279 W/m² | - |
| 1777896943 | 13.33° C | 56% | 1014.1 hPa | 0 mm | - | 262 W/m² | - |
| 1777896641 | 13.33° C | 56% | 1014.3 hPa | 0 mm | - | 252 W/m² | - |
| 1777896337 | 12.78° C | 58% | 1014.2 hPa | 0 mm | - | 235 W/m² | - |
| 1777896036 | 12.78° C | 59% | 1014.2 hPa | 0 mm | - | 222 W/m² | - |
| 1777895733 | 12.78° C | 58% | 1014.1 hPa | 0 mm | - | 57 W/m² | - |
| 1777895430 | 12.78° C | 59% | 1014.1 hPa | 0 mm | - | 193 W/m² | - |
| 1777895128 | 12.22° C | 58% | 1014.2 hPa | 0 mm | - | 168 W/m² | - |
| 1777894825 | 12.22° C | 57% | 1014.2 hPa | 0 mm | - | 165 W/m² | - |
| 1777894522 | 12.22° C | 58% | 1014.2 hPa | 0 mm | - | 52 W/m² | - |
| 1777894219 | 11.67° C | 59% | 1014.1 hPa | 0 mm | - | 52 W/m² | - |
| 1777893916 | 11.67° C | 59% | 1014 hPa | 0 mm | - | 50 W/m² | - |
* Rain latest hour (hover to see other rain measurements)
** Current wind speed in m/s (hover to see current wind gust speed)